changsha , China , ASIA

  • Saturday
    March 23

      Light rain

      45 °F

      Northwest

       

  • Sunday
    March 24

    Light rain  Light rain

    55 °F  43 °F

    Northwest  Southeast

        

  • Monday
    March 25

    Cloudy  Sunny

    68 °F  46 °F

    Southeast  South

        

  • Tuesday
    March 26

    Sunny  Light rain

    72 °F  63 °F

    South  South

       3~4L 

  • Wednesday
    March 27

    Light rain  Moderate rain

    77 °F  59 °F

    South  North

    3~4L    

  • Thursday
    March 28

    Light rain  Cloudy

    70 °F  55 °F

    North  North

        

  • Friday
    March 29

    Cloudy  Sunny

    70 °F  52 °F

    North  South

        

Date   Weather Temperature Humidity Total_rain Visibility Wind
23:00 Overcast 49°F 91.2% 0mm 999.9km Northeast  0.7m/s
02:00 Overcast 47°F 96.2% 0mm 999.9km Northeast  1.3m/s
05:00 Light rain 45°F 96.6% 0.1mm 999.9km Northeast  1.3m/s
08:00 Light rain 46°F 95.1% 1mm 999.9km Northeast  1.0m/s
11:00 Light rain 55°F 93.3% 1.1mm 999.9km Northeast  1.5m/s
14:00 Light rain 52°F 85.8% 0.5mm 999.9km Northeast  1.7m/s
17:00 Light rain 50°F 86.6% 0.9mm 999.9km Northeast  2.0m/s
20:00 Light rain 47°F 80.1% 2.5mm 999.9km Northwest  0.9m/s
23:00 Light rain 46°F 94.8% 0.4mm 999.9km Northwest  1.6m/s
02:00 Overcast 45°F 98.4% 0mm 999.9km Northwest  1.2m/s
05:00 Cloudy 43°F 98.6% 0mm 999.9km Northwest  0.9m/s
08:00 Cloudy 44°F 97.5% 0mm 999.9km Southwest  1.1m/s
11:00 Cloudy 58°F 85.2% 0mm 999.9km Northeast  1.3m/s
14:00 Cloudy 68°F 76.5% 0mm 999.9km Northeast  1.2m/s
17:00 Cloudy 66°F 74.1% 0mm 999.9km Northeast  0.4m/s
20:00 Cloudy 65°F 67.6% 0mm 999.9km Northeast  1.2m/s
23:00 Sunny 57°F 93.3% 0mm 999.9km Northeast  0.5m/s
02:00 Sunny 48°F 95.1% 0mm 999.9km Northeast  1.0m/s
05:00 Sunny 47°F 95.8% 0mm 999.9km Southeast  1.4m/s
08:00 Sunny 60°F 95.8% 0mm 999.9km Northeast  1.0m/s
11:00 Sunny 60°F 96.7% 0mm 999.9km Northeast  1.3m/s
14:00 Sunny 62°F 97.3% 0mm 999.9km Northeast  1.9m/s
17:00 Sunny 71°F 94.8% 0mm 999.9km Northeast  1.4m/s
20:00 Sunny 62°F 90.2% 0mm 999.9km Northeast  1.6m/s
23:00 Light rain 68°F 94.1% 0.1mm 999.9km Northeast  3.0m/s
02:00 Light rain 68°F 99.2% 0.6mm 999.9km Northeast  1.9m/s
05:00 Moderate rain 66°F 99.1% 4.7mm 999.9km Northwest  1.7m/s
08:00 Moderate rain 63°F 98.6% 4.2mm 999.9km Northwest  1.7m/s
11:00 Moderate rain 77°F 98.6% 8.5mm 999.9km Northwest  0.9m/s
14:00 Light rain 75°F 98.5% 0.5mm 999.9km Northeast  1.4m/s
17:00 Light rain 73°F 92% 0.1mm 999.9km Northeast  0.9m/s
20:00 Light rain 71°F 87.8% 0.7mm 999.9km Northeast  2.1m/s
23:00 Light rain 62°F 97.7% 0.7mm 999.9km Northeast  2.0m/s
02:00 Light rain 60°F 98.6% 0.9mm 999.9km Northeast  1.5m/s
05:00 Light rain 60°F 99% 2mm 999.9km Northeast  2.3m/s
08:00 Moderate rain 59°F 98.5% 9.9mm 999.9km Southeast  2.7m/s
11:00 Light rain 64°F 97.9% 0.6mm 999.9km Northwest  2.3m/s
14:00 Moderate rain 69°F 96.1% 8.2mm 999.9km Northwest  3.4m/s
17:00 Overcast 68°F 94.2% 0mm 999.9km Northeast  3.1m/s
20:00 Light rain 65°F 91.5% 0.8mm 999.9km Northwest  2.7m/s
23:00 Cloudy 66°F 92.1% 0mm 999.9km Northwest  2.5m/s
02:00 Cloudy 56°F 96.5% 0mm 999.9km Northwest  2.5m/s
05:00 Cloudy 56°F 95.6% 0mm 999.9km Northwest  2.7m/s
08:00 Cloudy 58°F 89.9% 0mm 999.9km Northwest  3.2m/s
11:00 Cloudy 65°F 84.3% 0mm 999.9km Southeast  3.6m/s
14:00 Cloudy 69°F 84.3% 0mm 999.9km Northeast  3.1m/s
17:00 Cloudy 69°F 80.8% 0mm 999.9km Southeast  2.2m/s
20:00 Cloudy 63°F 75.7% 0mm 999.9km Northeast  2.3m/s
23:00 Sunny 55°F 89.4% 0mm 999.9km Southeast  1.6m/s
02:00 Sunny 55°F 93.7% 0mm 999.9km Northeast  1.0m/s
05:00 Sunny 52°F 95% 0mm 999.9km Southeast  1.8m/s